Station Historical Data
Daily Summary for March 7, 2017 Units:  English    Metric   Both
« Previous Day
Next Day »
Daily Weekly Monthly Yearly Custom
  High: Low: Average:
Temperature: 58.3 °F 41.4 °F 52 °F
Dew Point: 52.5 °F 33.6 °F 47.8 °F
Humidity: 92% 68% 86%
Wind Speed: 15.0mph 0.0mph 5.9mph
Wind Gust: 21.0mph - -
Wind- - SSW
Pressure: 30.07 in 29.79 in -
Precipitation: 0.00 in    
Historical Graphs
 
 
Tabular Data for March 7, 2017
Time Temperature Dew Point Pressure Wind Wind Speed Wind Gust Humidity Rainfall Rate (Hourly)
00:04 52.8 °F 46.5 °F 30.07 in South 5.0 mph 17.0 mph 79% 0.00 in
00:09 52.5 °F 46.5 °F 30.07 in SE 5.0 mph 9.0 mph 80% 0.00 in
00:14 52.4 °F 46.4 °F 30.07 in South 3.0 mph 14.0 mph 80% 0.00 in
00:19 52.3 °F 46.6 °F 30.07 in South 3.0 mph 9.0 mph 81% 0.00 in
00:24 52.3 °F 46.6 °F 30.07 in SSE 8.0 mph 11.0 mph 81% 0.00 in
00:29 52.2 °F 46.9 °F 30.07 in SSW 7.0 mph 12.0 mph 82% 0.00 in
00:34 51.9 °F 46.9 °F 30.07 in SSW 7.0 mph 12.0 mph 83% 0.00 in
00:39 51.5 °F 47.1 °F 30.07 in SSW 6.0 mph 12.0 mph 85% 0.00 in
00:44 51.2 °F 47.2 °F 30.07 in South 5.0 mph 12.0 mph 86% 0.00 in
00:49 50.9 °F 47.2 °F 30.07 in South 5.0 mph 11.0 mph 87% 0.00 in
00:54 50.7 °F 47.3 °F 30.07 in SSW 5.0 mph 11.0 mph 88% 0.00 in
00:59 50.6 °F 47.2 °F 30.07 in SSW 5.0 mph 7.0 mph 88% 0.01 in
01:04 50.5 °F 47.4 °F 30.06 in South 2.0 mph 8.0 mph 89% 0.01 in
01:09 50.4 °F 47.3 °F 30.06 in SW 4.0 mph 8.0 mph 89% 0.01 in
01:14 50.3 °F 47.5 °F 30.06 in South 5.0 mph 7.0 mph 90% 0.01 in
01:19 50.2 °F 47.4 °F 30.06 in South 3.0 mph 8.0 mph 90% 0.02 in
01:24 50.2 °F 47.4 °F 30.05 in South 5.0 mph 7.0 mph 90% 0.02 in
01:29 50.1 °F 47.6 °F 30.05 in South 3.0 mph 8.0 mph 91% 0.02 in
01:34 50.1 °F 47.6 °F 30.04 in South 4.0 mph 8.0 mph 91% 0.03 in
01:39 50.1 °F 47.6 °F 30.04 in South 4.0 mph 8.0 mph 91% 0.03 in
01:44 50.1 °F 47.6 °F 30.04 in South 4.0 mph 8.0 mph 91% 0.04 in
01:49 50.1 °F 47.6 °F 30.04 in South 4.0 mph 9.0 mph 91% 0.05 in
01:54 50.1 °F 47.6 °F 30.04 in South 4.0 mph 9.0 mph 91% 0.07 in
01:59 50.1 °F 47.9 °F 30.03 in SSW 3.0 mph 7.0 mph 92% 0.07 in
02:04 50.1 °F 47.9 °F 30.03 in South 2.0 mph 7.0 mph 92% 0.08 in
02:09 50.1 °F 47.9 °F 30.03 in SSE 4.0 mph 7.0 mph 92% 0.09 in
02:14 50.2 °F 48.0 °F 30.03 in South 4.0 mph 7.0 mph 92% 0.09 in
02:19 50.2 °F 48.0 °F 30.02 in South 4.0 mph 7.0 mph 92% 0.09 in
02:24 50.2 °F 48.0 °F 30.02 in South 4.0 mph 7.0 mph 92% 0.09 in
02:29 50.2 °F 48.0 °F 30.02 in South 3.0 mph 8.0 mph 92% 0.09 in
02:34 50.2 °F 48.0 °F 30.02 in SW 5.0 mph 8.0 mph 92% 0.08 in
02:39 50.3 °F 47.8 °F 30.02 in SSW 5.0 mph 9.0 mph 91% 0.08 in
02:44 50.5 °F 48.3 °F 30.02 in South 5.0 mph 9.0 mph 92% 0.07 in
02:49 50.8 °F 48.3 °F 30.01 in SW 4.0 mph 10.0 mph 91% 0.06 in
02:54 51.0 °F 48.5 °F 30.01 in South 5.0 mph 7.0 mph 91% 0.05 in
02:59 51.2 °F 48.4 °F 30.01 in SSW 7.0 mph 15.0 mph 90% 0.04 in
03:04 51.5 °F 48.7 °F 30.01 in South 3.0 mph 11.0 mph 90% 0.03 in
03:09 51.5 °F 48.4 °F 30.01 in South 7.0 mph 10.0 mph 89% 0.02 in
03:14 51.5 °F 48.4 °F 30.01 in SSW 5.0 mph 10.0 mph 89% 0.02 in
03:19 51.6 °F 48.5 °F 30.00 in SSW 6.0 mph 11.0 mph 89% 0.03 in
03:24 51.6 °F 48.5 °F 30.00 in SSW 6.0 mph 13.0 mph 89% 0.03 in
03:29 51.6 °F 48.5 °F 30.00 in SSW 6.0 mph 13.0 mph 89% 0.05 in
03:34 51.5 °F 48.7 °F 30.00 in SSW 1.0 mph 11.0 mph 90% 0.06 in
03:39 51.5 °F 48.7 °F 30.00 in South 7.0 mph 10.0 mph 90% 0.06 in
03:44 51.6 °F 48.8 °F 29.99 in South 8.0 mph 12.0 mph 90% 0.07 in
03:49 51.6 °F 48.8 °F 29.99 in South 6.0 mph 15.0 mph 90% 0.07 in
03:54 51.6 °F 49.1 °F 29.99 in South 6.0 mph 15.0 mph 91% 0.06 in
03:59 51.6 °F 49.1 °F 29.99 in South 5.0 mph 11.0 mph 91% 0.07 in
04:04 51.8 °F 49.0 °F 29.99 in South 6.0 mph 11.0 mph 90% 0.07 in
04:09 51.8 °F 49.0 °F 29.98 in SSW 4.0 mph 17.0 mph 90% 0.07 in
04:14 52.0 °F 49.2 °F 29.98 in South 6.0 mph 12.0 mph 90% 0.07 in
04:19 52.1 °F 49.3 °F 29.98 in South 6.0 mph 12.0 mph 90% 0.05 in
04:24 52.2 °F 49.1 °F 29.98 in SE 7.0 mph 12.0 mph 89% 0.05 in
04:29 52.2 °F 49.1 °F 29.98 in South 6.0 mph 12.0 mph 89% 0.04 in
04:34 52.2 °F 49.1 °F 29.98 in South 8.0 mph 9.0 mph 89% 0.04 in
04:39 52.3 °F 49.2 °F 29.98 in South 7.0 mph 15.0 mph 89% 0.05 in
04:44 52.3 °F 49.2 °F 29.98 in South 8.0 mph 12.0 mph 89% 0.05 in
04:49 52.2 °F 49.1 °F 29.98 in South 6.0 mph 12.0 mph 89% 0.06 in
04:54 52.2 °F 49.4 °F 29.98 in South 6.0 mph 12.0 mph 90% 0.06 in
04:59 52.3 °F 49.5 °F 29.98 in South 7.0 mph 12.0 mph 90% 0.06 in
05:04 52.3 °F 49.5 °F 29.97 in South 7.0 mph 12.0 mph 90% 0.08 in
05:09 52.4 °F 49.6 °F 29.97 in South 5.0 mph 13.0 mph 90% 0.09 in
05:14 52.5 °F 49.7 °F 29.97 in SSE 7.0 mph 11.0 mph 90% 0.09 in
05:19 52.5 °F 49.4 °F 29.97 in South 6.0 mph 14.0 mph 89% 0.09 in
05:24 52.6 °F 49.4 °F 29.97 in South 7.0 mph 14.0 mph 89% 0.09 in
05:29 52.7 °F 49.5 °F 29.97 in South 6.0 mph 14.0 mph 89% 0.08 in
05:34 52.6 °F 49.4 °F 29.97 in South 7.0 mph 14.0 mph 89% 0.07 in
05:39 52.6 °F 49.4 °F 29.97 in South 7.0 mph 13.0 mph 89% 0.06 in
05:44 52.7 °F 49.5 °F 29.97 in SSW 5.0 mph 13.0 mph 89% 0.05 in
05:49 52.6 °F 49.1 °F 29.96 in South 6.0 mph 14.0 mph 88% 0.04 in
05:54 52.7 °F 49.2 °F 29.96 in SSE 8.0 mph 16.0 mph 88% 0.04 in
05:59 52.8 °F 49.3 °F 29.96 in South 7.0 mph 16.0 mph 88% 0.03 in
06:04 52.8 °F 49.3 °F 29.96 in South 7.0 mph 16.0 mph 88% 0.01 in
06:09 53.0 °F 49.5 °F 29.95 in South 7.0 mph 16.0 mph 88% 0.00 in
06:14 53.0 °F 49.2 °F 29.95 in SSW 7.0 mph 9.0 mph 87% 0.00 in
06:19 53.0 °F 49.2 °F 29.95 in SSW 3.0 mph 10.0 mph 87% 0.00 in
06:24 53.1 °F 49.3 °F 29.95 in SSW 5.0 mph 13.0 mph 87% 0.00 in
06:29 53.2 °F 49.4 °F 29.95 in South 4.0 mph 9.0 mph 87% 0.00 in
06:34 53.2 °F 49.1 °F 29.94 in South 5.0 mph 10.0 mph 86% 0.00 in
06:39 53.3 °F 49.2 °F 29.94 in South 5.0 mph 10.0 mph 86% 0.00 in
06:44 53.4 °F 49.3 °F 29.94 in South 6.0 mph 10.0 mph 86% 0.00 in
06:49 53.5 °F 49.4 °F 29.94 in South 5.0 mph 10.0 mph 86% 0.00 in
06:54 53.6 °F 49.2 °F 29.94 in SSW 7.0 mph 12.0 mph 85% 0.00 in
06:59 53.8 °F 49.4 °F 29.94 in South 8.0 mph 11.0 mph 85% 0.00 in
07:04 53.9 °F 49.5 °F 29.94 in South 5.0 mph 11.0 mph 85% 0.00 in
07:09 54.0 °F 49.3 °F 29.94 in South 6.0 mph 11.0 mph 84% 0.00 in
07:14 54.2 °F 49.5 °F 29.94 in South 6.0 mph 14.0 mph 84% 0.00 in
07:19 54.3 °F 49.2 °F 29.94 in SW 4.0 mph 9.0 mph 83% 0.00 in
07:24 54.3 °F 49.2 °F 29.94 in SSE 5.0 mph 9.0 mph 83% 0.00 in
07:29 54.3 °F 49.2 °F 29.94 in SE 4.0 mph 9.0 mph 83% 0.00 in
07:34 54.4 °F 49.3 °F 29.94 in South 6.0 mph 12.0 mph 83% 0.00 in
07:39 54.8 °F 49.4 °F 29.94 in South 7.0 mph 16.0 mph 82% 0.00 in
07:44 55.0 °F 49.3 °F 29.94 in South 7.0 mph 16.0 mph 81% 0.00 in
07:49 55.1 °F 49.4 °F 29.94 in South 7.0 mph 13.0 mph 81% 0.01 in
07:54 54.9 °F 49.5 °F 29.94 in SSW 6.0 mph 13.0 mph 82% 0.02 in
07:59 54.7 °F 49.6 °F 29.94 in SSW 8.0 mph 12.0 mph 83% 0.02 in
08:04 54.5 °F 49.8 °F 29.94 in South 4.0 mph 12.0 mph 84% 0.04 in
08:09 54.3 °F 49.6 °F 29.94 in SSW 7.0 mph 16.0 mph 84% 0.04 in
08:14 54.2 °F 49.5 °F 29.94 in South 6.0 mph 16.0 mph 84% 0.04 in
08:19 54.1 °F 49.7 °F 29.94 in South 6.0 mph 12.0 mph 85% 0.04 in
08:24 54.0 °F 49.6 °F 29.94 in South 6.0 mph 14.0 mph 85% 0.05 in
08:29 53.9 °F 49.5 °F 29.94 in South 6.0 mph 14.0 mph 85% 0.05 in
08:34 53.9 °F 49.5 °F 29.94 in South 6.0 mph 13.0 mph 85% 0.05 in
08:39 53.8 °F 49.7 °F 29.94 in SSW 7.0 mph 10.0 mph 86% 0.05 in
08:44 53.8 °F 49.7 °F 29.95 in SSE 5.0 mph 11.0 mph 86% 0.05 in
08:49 53.7 °F 49.6 °F 29.95 in South 6.0 mph 11.0 mph 86% 0.05 in
08:54 53.5 °F 49.7 °F 29.95 in SSE 7.0 mph 9.0 mph 87% 0.04 in
08:59 53.4 °F 49.6 °F 29.95 in SSW 4.0 mph 11.0 mph 87% 0.04 in
09:04 53.3 °F 49.8 °F 29.94 in SSE 6.0 mph 8.0 mph 88% 0.03 in
09:09 53.2 °F 49.7 °F 29.94 in SSW 5.0 mph 9.0 mph 88% 0.04 in
09:14 53.3 °F 49.8 °F 29.94 in South 5.0 mph 8.0 mph 88% 0.05 in
09:19 53.2 °F 49.7 °F 29.94 in South 7.0 mph 10.0 mph 88% 0.07 in
09:24 53.3 °F 50.1 °F 29.94 in South 5.0 mph 10.0 mph 89% 0.07 in
09:29 53.4 °F 50.2 °F 29.94 in South 5.0 mph 9.0 mph 89% 0.08 in
09:34 53.5 °F 50.0 °F 29.94 in SSW 5.0 mph 11.0 mph 88% 0.08 in
09:39 53.6 °F 50.1 °F 29.94 in SSW 5.0 mph 11.0 mph 88% 0.09 in
09:44 53.9 °F 50.4 °F 29.94 in SSW 2.0 mph 9.0 mph 88% 0.09 in
09:49 54.1 °F 50.3 °F 29.93 in SSW 7.0 mph 11.0 mph 87% 0.08 in
09:54 54.1 °F 50.3 °F 29.93 in SSW 5.0 mph 9.0 mph 87% 0.09 in
09:59 54.1 °F 50.3 °F 29.93 in SSW 5.0 mph 12.0 mph 87% 0.09 in
10:04 54.2 °F 50.4 °F 29.93 in South 8.0 mph 10.0 mph 87% 0.08 in
10:09 54.1 °F 50.3 °F 29.92 in SSE 4.0 mph 12.0 mph 87% 0.08 in
10:14 54.1 °F 50.6 °F 29.92 in South 6.0 mph 9.0 mph 88% 0.07 in
10:19 54.2 °F 50.7 °F 29.92 in South 4.0 mph 10.0 mph 88% 0.06 in
10:24 54.2 °F 50.7 °F 29.92 in SSW 6.0 mph 8.0 mph 88% 0.05 in
10:29 54.3 °F 50.5 °F 29.92 in SW 8.0 mph 9.0 mph 87% 0.04 in
10:34 54.6 °F 50.8 °F 29.91 in SSW 5.0 mph 10.0 mph 87% 0.04 in
10:39 54.8 °F 51.0 °F 29.91 in SSW 6.0 mph 12.0 mph 87% 0.04 in
10:44 55.0 °F 50.9 °F 29.91 in SSW 6.0 mph 13.0 mph 86% 0.04 in
10:49 55.4 °F 51.3 °F 29.91 in SSW 7.0 mph 13.0 mph 86% 0.04 in
10:54 55.6 °F 51.5 °F 29.91 in SSW 7.0 mph 14.0 mph 86% 0.03 in
10:59 55.7 °F 51.3 °F 29.91 in SSW 8.0 mph 14.0 mph 85% 0.03 in
11:04 56.0 °F 51.6 °F 29.91 in SSW 8.0 mph 15.0 mph 85% 0.03 in
11:09 56.0 °F 51.6 °F 29.91 in SSE 6.0 mph 14.0 mph 85% 0.02 in
11:14 55.6 °F 51.2 °F 29.91 in SW 7.0 mph 15.0 mph 85% 0.03 in
11:19 55.2 °F 51.1 °F 29.91 in SW 5.0 mph 14.0 mph 86% 0.02 in
11:24 55.0 °F 50.9 °F 29.90 in SSW 4.0 mph 18.0 mph 86% 0.03 in
11:29 54.8 °F 50.7 °F 29.90 in SW 7.0 mph 14.0 mph 86% 0.03 in
11:34 54.8 °F 51.0 °F 29.89 in South 5.0 mph 15.0 mph 87% 0.03 in
11:39 54.9 °F 50.8 °F 29.89 in South 7.0 mph 15.0 mph 86% 0.02 in
11:44 55.1 °F 51.0 °F 29.89 in SSW 7.0 mph 12.0 mph 86% 0.02 in
11:49 55.3 °F 50.9 °F 29.89 in SSW 7.0 mph 14.0 mph 85% 0.02 in
11:54 55.4 °F 50.6 °F 29.88 in South 7.0 mph 15.0 mph 84% 0.02 in
11:59 55.8 °F 51.0 °F 29.88 in SSW 5.0 mph 15.0 mph 84% 0.02 in
12:04 56.1 °F 51.0 °F 29.88 in South 8.0 mph 13.0 mph 83% 0.02 in
12:09 56.5 °F 51.1 °F 29.88 in SW 14.0 mph 21.0 mph 82% 0.02 in
12:14 56.8 °F 51.4 °F 29.87 in SSW 9.0 mph 21.0 mph 82% 0.01 in
12:19 57.1 °F 51.3 °F 29.87 in SSW 9.0 mph 18.0 mph 81% 0.01 in
12:24 57.3 °F 51.2 °F 29.87 in South 7.0 mph 18.0 mph 80% 0.00 in
12:29 57.3 °F 51.2 °F 29.87 in SSW 11.0 mph 19.0 mph 80% 0.00 in
12:34 57.2 °F 51.1 °F 29.87 in SSW 4.0 mph 18.0 mph 80% 0.00 in
12:39 57.2 °F 51.1 °F 29.86 in South 7.0 mph 19.0 mph 80% 0.00 in
12:44 57.3 °F 51.2 °F 29.86 in SSW 10.0 mph 19.0 mph 80% 0.00 in
12:49 57.3 °F 51.2 °F 29.86 in SSW 9.0 mph 19.0 mph 80% 0.00 in
12:54 57.3 °F 50.8 °F 29.86 in SSW 9.0 mph 19.0 mph 79% 0.00 in
12:59 57.4 °F 50.9 °F 29.86 in South 15.0 mph 17.0 mph 79% 0.00 in
13:04 57.4 °F 50.9 °F 29.85 in South 9.0 mph 19.0 mph 79% 0.00 in
13:09 57.5 °F 51.0 °F 29.85 in South 10.0 mph 15.0 mph 79% 0.00 in
13:14 57.7 °F 50.9 °F 29.85 in SSW 6.0 mph 19.0 mph 78% 0.00 in
13:19 57.7 °F 50.9 °F 29.85 in SSW 9.0 mph 19.0 mph 78% 0.00 in
13:24 57.9 °F 51.1 °F 29.84 in SSW 8.0 mph 17.0 mph 78% 0.00 in
13:29 58.0 °F 51.2 °F 29.84 in SSW 8.0 mph 18.0 mph 78% 0.00 in
13:34 57.8 °F 51.3 °F 29.84 in SSE 5.0 mph 12.0 mph 79% 0.00 in
13:39 57.6 °F 51.5 °F 29.84 in WSW 6.0 mph 11.0 mph 80% 0.00 in
13:44 57.4 °F 51.6 °F 29.83 in SSW 4.0 mph 13.0 mph 81% 0.00 in
13:49 57.2 °F 51.4 °F 29.83 in SSW 7.0 mph 13.0 mph 81% 0.01 in
13:54 57.2 °F 51.4 °F 29.82 in SSW 8.0 mph 20.0 mph 81% 0.01 in
13:59 57.0 °F 51.9 °F 29.82 in SSW 7.0 mph 20.0 mph 83% 0.01 in
14:04 56.9 °F 51.8 °F 29.82 in SSW 7.0 mph 16.0 mph 83% 0.01 in
14:09 56.6 °F 51.5 °F 29.82 in SSW 8.0 mph 16.0 mph 83% 0.02 in
14:14 56.4 °F 51.6 °F 29.82 in WSW 9.0 mph 14.0 mph 84% 0.02 in
14:19 56.3 °F 51.5 °F 29.82 in South 6.0 mph 17.0 mph 84% 0.03 in
14:24 56.2 °F 51.7 °F 29.81 in SSW 8.0 mph 17.0 mph 85% 0.03 in
14:29 56.6 °F 52.5 °F 29.81 in SW 5.0 mph 11.0 mph 86% 0.03 in
14:34 56.8 °F 52.3 °F 29.81 in SW 12.0 mph 12.0 mph 85% 0.03 in
14:39 56.7 °F 51.9 °F 29.81 in South 3.0 mph 17.0 mph 84% 0.03 in
14:44 56.7 °F 51.9 °F 29.81 in South 9.0 mph 18.0 mph 84% 0.03 in
14:49 56.8 °F 52.0 °F 29.81 in SSW 7.0 mph 18.0 mph 84% 0.02 in
14:54 57.0 °F 51.9 °F 29.80 in SSW 8.0 mph 18.0 mph 83% 0.02 in
14:59 57.3 °F 52.2 °F 29.80 in SSW 7.0 mph 15.0 mph 83% 0.02 in
15:04 57.4 °F 51.9 °F 29.79 in South 5.0 mph 16.0 mph 82% 0.02 in
15:09 57.8 °F 52.3 °F 29.80 in South 10.0 mph 17.0 mph 82% 0.01 in
15:14 58.3 °F 52.5 °F 29.80 in South 7.0 mph 16.0 mph 81% 0.01 in
15:19 58.2 °F 52.4 °F 29.81 in SW 6.0 mph 15.0 mph 81% 0.00 in
15:24 58.2 °F 52.4 °F 29.81 in South 5.0 mph 12.0 mph 81% 0.00 in
15:29 58.2 °F 52.4 °F 29.80 in SW 7.0 mph 12.0 mph 81% 0.00 in
15:34 57.9 °F 52.1 °F 29.81 in SW 6.0 mph 14.0 mph 81% 0.00 in
15:39 57.8 °F 51.7 °F 29.81 in SW 7.0 mph 14.0 mph 80% 0.00 in
15:44 57.6 °F 51.8 °F 29.80 in SW 7.0 mph 15.0 mph 81% 0.00 in
15:49 57.6 °F 51.8 °F 29.80 in SSW 6.0 mph 15.0 mph 81% 0.00 in
15:54 57.5 °F 51.7 °F 29.80 in SW 6.0 mph 16.0 mph 81% 0.00 in
15:59 57.3 °F 51.5 °F 29.80 in SSW 6.0 mph 12.0 mph 81% 0.00 in
16:04 57.1 °F 51.3 °F 29.81 in South 3.0 mph 11.0 mph 81% 0.00 in
16:09 57.0 °F 51.2 °F 29.81 in SW 3.0 mph 9.0 mph 81% 0.00 in
16:14 56.9 °F 51.1 °F 29.81 in WSW 4.0 mph 9.0 mph 81% 0.00 in
16:19 56.7 °F 50.9 °F 29.81 in WSW 4.0 mph 7.0 mph 81% 0.00 in
16:24 55.9 °F 49.8 °F 29.82 in SW 2.0 mph 10.0 mph 80% 0.00 in
16:29 55.2 °F 49.5 °F 29.82 in SW 9.0 mph 12.0 mph 81% 0.00 in
16:34 54.4 °F 48.7 °F 29.82 in SW 6.0 mph 12.0 mph 81% 0.00 in
16:39 53.9 °F 48.5 °F 29.82 in SW 6.0 mph 11.0 mph 82% 0.00 in
16:44 53.5 °F 48.5 °F 29.81 in SSW 6.0 mph 13.0 mph 83% 0.00 in
16:49 53.4 °F 48.7 °F 29.81 in SSW 5.0 mph 13.0 mph 84% 0.00 in
16:54 53.5 °F 48.8 °F 29.81 in SW 5.0 mph 12.0 mph 84% 0.00 in
16:59 53.6 °F 48.9 °F 29.81 in SW 6.0 mph 12.0 mph 84% 0.00 in
17:04 53.6 °F 48.9 °F 29.81 in SW 2.0 mph 9.0 mph 84% 0.00 in
17:09 53.7 °F 49.0 °F 29.81 in SW 2.0 mph 9.0 mph 84% 0.00 in
17:14 53.9 °F 49.2 °F 29.81 in SSW 4.0 mph 6.0 mph 84% 0.00 in
17:19 53.9 °F 49.2 °F 29.80 in SSW 1.0 mph 6.0 mph 84% 0.00 in
17:24 54.1 °F 49.4 °F 29.81 in SSW 1.0 mph 4.0 mph 84% 0.00 in
17:29 54.2 °F 49.5 °F 29.80 in SW 2.0 mph 4.0 mph 84% 0.00 in
17:34 54.6 °F 49.9 °F 29.80 in SW 3.0 mph 6.0 mph 84% 0.00 in
17:39 54.9 °F 50.2 °F 29.80 in SSW 3.0 mph 6.0 mph 84% 0.00 in
17:44 55.7 °F 50.6 °F 29.80 in SSW 4.0 mph 8.0 mph 83% 0.00 in
17:49 56.4 °F 51.0 °F 29.80 in SSW 6.0 mph 18.0 mph 82% 0.00 in
17:54 56.9 °F 50.8 °F 29.80 in SSW 6.0 mph 18.0 mph 80% 0.00 in
17:59 57.2 °F 51.1 °F 29.80 in SSW 6.0 mph 14.0 mph 80% 0.00 in
18:04 57.3 °F 50.8 °F 29.80 in SSW 6.0 mph 15.0 mph 79% 0.00 in
18:09 57.5 °F 51.0 °F 29.80 in SSW 7.0 mph 15.0 mph 79% 0.00 in
18:14 57.5 °F 51.0 °F 29.81 in SSW 8.0 mph 18.0 mph 79% 0.00 in
18:19 56.7 °F 49.6 °F 29.82 in WSW 11.0 mph 21.0 mph 77% 0.00 in
18:24 54.3 °F 48.3 °F 29.82 in WSW 10.0 mph 14.0 mph 80% 0.00 in
18:29 52.2 °F 47.5 °F 29.83 in WSW 5.0 mph 12.0 mph 84% 0.01 in
18:34 51.0 °F 47.0 °F 29.83 in WSW 7.0 mph 10.0 mph 86% 0.01 in
18:39 50.6 °F 46.9 °F 29.83 in WSW 5.0 mph 10.0 mph 87% 0.01 in
18:44 50.4 °F 47.3 °F 29.84 in WSW 5.0 mph 10.0 mph 89% 0.01 in
18:49 50.3 °F 47.2 °F 29.84 in West 7.0 mph 14.0 mph 89% 0.02 in
18:54 50.1 °F 47.0 °F 29.84 in West 8.0 mph 18.0 mph 89% 0.03 in
18:59 49.9 °F 46.8 °F 29.84 in West 8.0 mph 18.0 mph 89% 0.03 in
19:04 49.7 °F 46.6 °F 29.84 in WSW 10.0 mph 12.0 mph 89% 0.04 in
19:09 49.5 °F 46.7 °F 29.84 in West 6.0 mph 12.0 mph 90% 0.04 in
19:14 49.4 °F 46.6 °F 29.85 in WSW 6.0 mph 12.0 mph 90% 0.04 in
19:19 49.0 °F 46.2 °F 29.84 in SW 5.0 mph 11.0 mph 90% 0.04 in
19:24 48.6 °F 45.8 °F 29.84 in SW 6.0 mph 14.0 mph 90% 0.05 in
19:29 48.4 °F 45.6 °F 29.84 in WSW 7.0 mph 14.0 mph 90% 0.04 in
19:34 48.1 °F 45.3 °F 29.84 in SW 7.0 mph 14.0 mph 90% 0.04 in
19:39 47.8 °F 45.3 °F 29.85 in SW 4.0 mph 14.0 mph 91% 0.04 in
19:44 47.3 °F 44.5 °F 29.84 in West 7.0 mph 14.0 mph 90% 0.04 in
19:49 46.8 °F 44.3 °F 29.85 in WSW 6.0 mph 14.0 mph 91% 0.04 in
19:54 46.5 °F 44.0 °F 29.84 in WSW 7.0 mph 12.0 mph 91% 0.04 in
19:59 46.4 °F 43.9 °F 29.84 in WSW 5.0 mph 12.0 mph 91% 0.05 in
20:04 46.4 °F 44.2 °F 29.84 in WSW 4.0 mph 9.0 mph 92% 0.04 in
20:09 46.5 °F 44.3 °F 29.84 in SW 8.0 mph 11.0 mph 92% 0.04 in
20:14 46.7 °F 44.5 °F 29.84 in SW 6.0 mph 8.0 mph 92% 0.04 in
20:19 46.7 °F 44.5 °F 29.84 in WSW 5.0 mph 14.0 mph 92% 0.05 in
20:24 46.5 °F 44.3 °F 29.84 in SW 7.0 mph 14.0 mph 92% 0.04 in
20:29 46.2 °F 44.0 °F 29.84 in SW 8.0 mph 14.0 mph 92% 0.04 in
20:34 45.8 °F 43.6 °F 29.85 in SW 8.0 mph 14.0 mph 92% 0.04 in
20:39 45.6 °F 43.4 °F 29.85 in West 10.0 mph 13.0 mph 92% 0.05 in
20:44 45.3 °F 43.1 °F 29.86 in SW 7.0 mph 14.0 mph 92% 0.07 in
20:49 45.2 °F 43.0 °F 29.87 in WSW 8.0 mph 15.0 mph 92% 0.07 in
20:54 45.1 °F 42.9 °F 29.87 in WSW 7.0 mph 15.0 mph 92% 0.06 in
20:59 44.8 °F 42.6 °F 29.87 in SW 7.0 mph 16.0 mph 92% 0.05 in
21:04 44.4 °F 42.2 °F 29.87 in West 4.0 mph 13.0 mph 92% 0.06 in
21:09 44.2 °F 42.0 °F 29.88 in WSW 7.0 mph 10.0 mph 92% 0.06 in
21:14 44.0 °F 41.8 °F 29.88 in West 6.0 mph 12.0 mph 92% 0.06 in
21:19 43.6 °F 41.4 °F 29.88 in WNW 4.0 mph 12.0 mph 92% 0.06 in
21:24 43.3 °F 41.1 °F 29.89 in West 6.0 mph 14.0 mph 92% 0.06 in
21:29 43.0 °F 40.8 °F 29.89 in WSW 7.0 mph 14.0 mph 92% 0.06 in
21:34 42.7 °F 40.5 °F 29.89 in WSW 7.0 mph 13.0 mph 92% 0.06 in
21:39 42.4 °F 40.2 °F 29.90 in WSW 7.0 mph 13.0 mph 92% 0.06 in
21:44 42.2 °F 40.0 °F 29.90 in WSW 7.0 mph 16.0 mph 92% 0.04 in
21:49 41.9 °F 39.7 °F 29.90 in WSW 8.0 mph 17.0 mph 92% 0.04 in
21:54 41.7 °F 39.5 °F 29.90 in West 7.0 mph 12.0 mph 92% 0.06 in
21:59 41.5 °F 39.3 °F 29.91 in WSW 7.0 mph 12.0 mph 92% 0.06 in
22:04 41.4 °F 39.3 °F 29.92 in SW 5.0 mph 12.0 mph 92% 0.06 in
22:09 41.4 °F 39.3 °F 29.92 in West 7.0 mph 12.0 mph 92% 0.06 in
22:14 41.4 °F 39.3 °F 29.91 in WSW 3.0 mph 9.0 mph 92% 0.06 in
22:19 41.5 °F 39.3 °F 29.90 in Calm   9.0 mph 92% 0.05 in
22:24 41.6 °F 39.4 °F 29.90 in SW 2.0 mph 7.0 mph 92% 0.06 in
22:29 41.8 °F 39.4 °F 29.92 in WSW 3.0 mph 8.0 mph 91% 0.06 in
22:34 41.9 °F 39.2 °F 29.92 in West 4.0 mph 8.0 mph 90% 0.06 in
22:39 41.8 °F 38.8 °F 29.92 in WSW 5.0 mph 11.0 mph 89% 0.05 in
22:44 41.8 °F 38.2 °F 29.91 in WSW 6.0 mph 11.0 mph 87% 0.05 in
22:49 41.8 °F 38.2 °F 29.92 in WSW 4.0 mph 9.0 mph 87% 0.04 in
22:54 41.8 °F 37.6 °F 29.92 in SW 6.0 mph 7.0 mph 85% 0.02 in
22:59 41.8 °F 37.3 °F 29.92 in WSW 3.0 mph 8.0 mph 84% 0.02 in
23:04 41.9 °F 37.1 °F 29.92 in SW 4.0 mph 8.0 mph 83% 0.01 in
23:09 41.8 °F 36.7 °F 29.91 in SW 3.0 mph 8.0 mph 82% 0.01 in
23:14 41.6 °F 36.5 °F 29.92 in SW 3.0 mph 7.0 mph 82% 0.01 in
23:19 41.5 °F 36.4 °F 29.91 in SW 7.0 mph 9.0 mph 82% 0.01 in
23:24 42.2 °F 35.5 °F 29.91 in WNW 4.0 mph 11.0 mph 77% 0.00 in
23:29 42.5 °F 35.5 °F 29.92 in SW 4.0 mph 8.0 mph 76% 0.00 in
23:34 42.8 °F 35.1 °F 29.92 in West 10.0 mph 12.0 mph 74% 0.00 in
23:39 42.9 °F 35.2 °F 29.91 in WSW 6.0 mph 12.0 mph 74% 0.00 in
23:44 43.5 °F 33.6 °F 29.92 in WSW 7.0 mph 15.0 mph 68% 0.00 in
23:49 43.4 °F 34.6 °F 29.92 in WSW 6.0 mph 15.0 mph 71% 0.00 in
23:54 43.0 °F 34.6 °F 29.93 in SW 5.0 mph 8.0 mph 72% 0.00 in
23:59 42.8 °F 34.7 °F 29.92 in SW 2.0 mph 7.0 mph 73% 0.00 in
Buffalo, New York, USA
Compliments of Weather Underground - 2.5 mb